Stations météo

réclame
Mon MeteoGroup
Capo Caccia, Italie (16522): Température de l'air & dewpoint: 16.06.2018 19:00:00 - 22.06.2018 19:00:00 (CEST)Capo Caccia, Italie (16522): Vitesse du vent: 16.06.2018 19:00:00 - 22.06.2018 19:00:00 (CEST)Capo Caccia, Italie (16522): Direction du vent: 16.06.2018 19:00:00 - 22.06.2018 19:00:00 (CEST)Capo Caccia, Italie (16522): reduced air pressure: 16.06.2018 19:00:00 - 22.06.2018 19:00:00 (CEST)Capo Caccia, Italie (16522): visibility: 16.06.2018 19:00:00 - 22.06.2018 19:00:00 (CEST)Capo Caccia, Italie (16522): Ensoleillement: 16.06.2018 19:00:00 - 22.06.2018 19:00:00 (CEST)
Date & Time tt [°C] td [°C] ff [km/h] ff [knt] dd ppp [hPa] vv [km] sd [min]
22.06.2018 19:00:00 23,0 17,2 15 8 SSW 1013,9 20 60
22.06.2018 18:00:00 24,4 17,9 13 7 W 1014,2 20 60
22.06.2018 17:00:00 25,0 20,5 13 7 NNW 1014,3 20 60
22.06.2018 16:00:00 24,6 22,3 13 7 SW 1014,7 15 60
22.06.2018 15:00:00 24,4 22,1 8 4 SW 1015,3 12 18
22.06.2018 14:00:00 24,0 21,5 8 4 NE 1015,4 10 0
22.06.2018 13:00:00 24,2 21,7 9 5 WNW 1015,4 6 0
22.06.2018 12:00:00 23,6 22,0 18 10 S 1015,5 2,0 0
22.06.2018 11:00:00 23,2 21,7 18 10 S 1015,5 2,0 0
22.06.2018 10:00:00 22,0 20,3 16 9 S 1015,6 6 12
22.06.2018 09:00:00 21,4 20,6 15 8 S 1015,7 0,3 0
22.06.2018 08:00:00 21,4 20,9 13 7 S 1015,7 0,2 0
22.06.2018 07:00:00 22,0 21,5 9 5 S 1015,7 0,1 0
22.06.2018 06:00:00 22,0 21,2 8 4 S 1015,7 0,1 0
22.06.2018 05:00:00 21,4 20,6 8 4 WSW 1016,1 10 -
22.06.2018 04:00:00 22,0 21,3 8 4 WSW 1016,2 5 -
22.06.2018 03:00:00 22,6 21,9 8 4 W 1016,5 20 -
22.06.2018 02:00:00 22,6 21,9 8 4 W 1016,6 20 -
22.06.2018 01:00:00 22,8 21,8 5 3 WSW 1016,7 20 -
22.06.2018 00:00:00 23,0 20,3 4 2 WNW 1017,0 20 -
21.06.2018 23:00:00 23,0 19,8 4 2 ENE 1017,1 20 -
21.06.2018 22:00:00 22,6 19,0 9 5 NNE 1016,5 20 -
21.06.2018 21:00:00 24,0 17,5 9 5 NNW 1015,9 20 0
21.06.2018 20:00:00 24,4 17,7 9 5 NNW 1015,9 20 48
21.06.2018 19:00:00 25,0 16,7 15 8 WNW 1015,9 20 60
21.06.2018 18:00:00 25,0 22,9 16 9 WNW 1016,4 20 60
21.06.2018 17:00:00 25,0 22,5 15 8 WNW 1016,7 20 60
21.06.2018 16:00:00 25,0 21,3 16 9 WNW 1016,4 20 60
21.06.2018 15:00:00 24,8 22,1 16 9 WNW 1017,5 20 60
21.06.2018 14:00:00 24,8 22,1 15 8 WNW 1017,5 20 60
21.06.2018 13:00:00 25,4 21,1 9 5 WSW 1017,8 20 60
21.06.2018 12:00:00 25,0 20,3 9 5 WSW 1017,6 20 60
21.06.2018 11:00:00 24,6 18,8 5 3 WSW 1017,7 20 60
21.06.2018 10:00:00 25,0 18,0 4 2 WSW 1017,4 20 60
21.06.2018 09:00:00 24,6 19,9 8 4 WSW 1017,5 20 60
21.06.2018 08:00:00 23,4 19,8 0 0 N 1017,6 20 48
21.06.2018 07:00:00 23,0 18,1 0 0 N 1017,6 20 -
21.06.2018 06:00:00 23,0 18,5 0 0 N 1017,6 20 -
21.06.2018 05:00:00 23,0 18,3 0 0 N 1017,8 15 60
21.06.2018 04:00:00 22,6 18,0 0 0 N 1018,0 15 -
21.06.2018 03:00:00 22,8 19,2 8 4 SSW 1018,0 15 -
21.06.2018 02:00:00 23,0 18,3 8 4 SSW 1018,2 15 -
21.06.2018 01:00:00 23,0 18,3 9 5 SW 1018,5 15 -
21.06.2018 00:00:00 23,0 19,0 8 4 SSW 1018,4 15 -
20.06.2018 23:00:00 23,4 15,2 9 5 S 1018,1 15 -
20.06.2018 22:00:00 23,2 18,7 8 4 S 1018,0 15 -
20.06.2018 21:00:00 23,8 19,1 8 4 SSW 1017,9 15 12
20.06.2018 20:00:00 23,6 21,5 5 3 S 1018,1 15 60
20.06.2018 19:00:00 24,6 23,7 8 4 SSE 1017,8 15 60
20.06.2018 18:00:00 25,6 21,1 8 4 W 1017,8 20 60
20.06.2018 17:00:00 25,2 23,1 13 7 WNW 1017,8 20 60
20.06.2018 16:00:00 25,2 22,3 15 8 W 1017,8 20 60
20.06.2018 15:00:00 25,0 21,3 18 10 W 1018,2 20 60
20.06.2018 14:00:00 25,2 17,9 15 8 NW 1018,4 20 60
20.06.2018 13:00:00 25,4 19,1 11 6 NW 1018,4 20 60
20.06.2018 12:00:00 26,0 18,9 8 4 WNW 1018,3 20 60
20.06.2018 11:00:00 26,0 18,4 8 4 WNW 1018,3 20 60
20.06.2018 10:00:00 26,0 17,6 8 4 WNW 1018,3 20 60
20.06.2018 09:00:00 26,8 16,4 9 5 NE 1018,3 20 60
20.06.2018 08:00:00 25,0 16,7 8 4 NE 1018,2 20 48
20.06.2018 07:00:00 24,0 15,8 4 2 NNW 1018,0 20 -
20.06.2018 06:00:00 23,4 17,2 4 2 NNW 1017,8 20 -
20.06.2018 05:00:00 24,0 16,5 5 3 E 1017,8 20 -
20.06.2018 04:00:00 23,4 17,2 4 2 ENE 1018,1 20 -
20.06.2018 03:00:00 23,0 17,2 5 3 NE 1018,3 20 -
20.06.2018 02:00:00 23,6 17,8 4 2 NE 1018,3 20 -
20.06.2018 01:00:00 23,6 16,9 9 5 ESE 1018,3 20 -
20.06.2018 00:00:00 22,8 17,3 11 6 NE 1018,2 20 -
19.06.2018 23:00:00 23,4 17,6 11 6 ENE 1017,8 20 -
19.06.2018 22:00:00 24,4 17,9 24 13 NNE 1017,5 20 -
19.06.2018 21:00:00 24,4 18,1 22 12 NNE 1017,0 20 -
19.06.2018 20:00:00 26,4 16,1 26 14 NNE 1016,4 20 42
19.06.2018 19:00:00 28,0 15,3 22 12 N 1016,2 20 60
19.06.2018 18:00:00 29,0 13,2 39 21 NNE 1016,1 20 60
19.06.2018 17:00:00 30,2 14,3 35 19 NNE 1016,5 20 60
19.06.2018 16:00:00 30,4 14,1 37 20 NNE 1016,6 20 60
19.06.2018 15:00:00 31,0 17,0 31 17 N 1016,9 20 60
19.06.2018 14:00:00 29,0 19,6 16 9 NNW 1017,1 20 60
19.06.2018 13:00:00 26,8 21,5 15 8 N 1017,3 20 60
19.06.2018 12:00:00 29,8 16,2 26 14 NNE 1017,1 20 60
19.06.2018 11:00:00 28,4 18,2 22 12 NE 1017,2 20 60
19.06.2018 10:00:00 26,4 20,0 15 8 NNE 1017,4 20 60
19.06.2018 09:00:00 24,0 18,4 9 5 NE 1017,5 12 60
19.06.2018 08:00:00 21,0 20,2 16 9 NNE 1017,5 12 30
19.06.2018 07:00:00 20,4 19,6 11 6 NE 1017,6 12 0
19.06.2018 06:00:00 20,4 19,6 13 7 NE 1016,9 12 -
19.06.2018 05:00:00 20,4 18,4 5 3 NNE 1016,9 20 -
19.06.2018 04:00:00 20,4 19,1 11 6 NNE 1016,9 20 -
19.06.2018 03:00:00 20,4 19,7 18 10 NNE 1016,9 20 -
19.06.2018 02:00:00 20,8 20,8 22 12 NNE 1016,8 20 -
19.06.2018 01:00:00 20,8 20,8 24 13 NNE 1016,9 20 -
19.06.2018 00:00:00 20,2 20,2 16 9 NNE 1017,0 20 -
18.06.2018 23:00:00 20,2 18,3 16 9 NNE 1016,9 20 -
18.06.2018 22:00:00 20,4 18,4 11 6 NNE 1016,7 20 -
18.06.2018 21:00:00 20,4 18,4 11 6 N 1015,8 15 12
18.06.2018 20:00:00 21,2 18,4 5 3 N 1015,7 20 60
18.06.2018 19:00:00 22,4 18,4 9 5 WNW 1015,5 15 60
18.06.2018 18:00:00 22,2 18,2 5 3 S 1015,4 15 60
18.06.2018 17:00:00 23,0 17,9 9 5 SW 1015,4 10 60
18.06.2018 16:00:00 23,2 17,9 9 5 SSW 1015,4 15 60
18.06.2018 15:00:00 23,0 17,2 8 4 SSW 1015,5 15 60
18.06.2018 14:00:00 23,4 17,6 8 4 SSW 1015,5 15 60
18.06.2018 13:00:00 24,0 17,7 8 4 NNW 1015,4 15 60
18.06.2018 12:00:00 22,8 17,0 8 4 NE 1015,5 12 60
18.06.2018 11:00:00 21,4 17,0 8 4 SSW 1016,5 12 60
18.06.2018 10:00:00 21,2 17,2 8 4 W 1016,5 12 60
18.06.2018 09:00:00 21,4 18,2 15 8 WNW 1016,1 20 60
18.06.2018 08:00:00 21,0 17,4 18 10 WNW 1016,1 20 12
18.06.2018 07:00:00 21,0 18,8 15 8 NW 1016,1 20 -
18.06.2018 06:00:00 20,0 18,3 9 5 WNW 1016,0 10 -
18.06.2018 05:00:00 20,0 18,3 9 5 WNW 1016,2 15 -
18.06.2018 04:00:00 20,0 18,3 8 4 WNW 1016,2 15 -
18.06.2018 03:00:00 20,8 19,1 13 7 WNW 1017,2 20 -
18.06.2018 02:00:00 20,2 18,7 15 8 WNW 1017,4 15 -
18.06.2018 01:00:00 20,0 18,3 16 9 WNW 1017,4 15 -
18.06.2018 00:00:00 20,2 18,5 13 7 W 1017,4 15 -
17.06.2018 23:00:00 20,0 18,3 15 8 W 1017,4 15 -
17.06.2018 22:00:00 20,0 17,6 18 10 WNW 1016,9 15 -
17.06.2018 21:00:00 20,2 17,4 22 12 W 1016,8 20 6
17.06.2018 20:00:00 20,4 17,4 26 14 WNW 1016,8 20 60
17.06.2018 19:00:00 21,6 18,4 22 12 WNW 1016,7 20 60
17.06.2018 18:00:00 22,0 18,4 18 10 WNW 1016,6 20 60
17.06.2018 17:00:00 22,4 18,8 18 10 WNW 1016,9 20 60
17.06.2018 16:00:00 22,2 18,6 18 10 N 1016,9 20 60
17.06.2018 15:00:00 23,0 19,4 18 10 W 1016,6 20 60
17.06.2018 14:00:00 23,0 19,4 16 9 W 1016,6 20 60
17.06.2018 13:00:00 23,0 19,4 8 4 N 1016,5 20 60
17.06.2018 12:00:00 23,0 18,3 8 4 SSW 1016,1 20 60
17.06.2018 11:00:00 22,0 18,4 8 4 S 1016,4 20 48
17.06.2018 10:00:00 22,0 19,4 8 4 SSW 1016,6 20 30
17.06.2018 09:00:00 21,0 19,3 5 3 S 1015,6 20 0
17.06.2018 08:00:00 19,8 18,8 8 4 S 1015,3 20 0
17.06.2018 07:00:00 20,0 19,4 9 5 S 1014,7 15 30
17.06.2018 06:00:00 20,0 19,2 13 7 SSE 1014,7 12 0
17.06.2018 05:00:00 20,0 18,7 13 7 SSE 1014,7 20 -
17.06.2018 04:00:00 - - - - - - - -
17.06.2018 03:00:00 19,8 18,6 5 3 SE 1015,3 20 -
17.06.2018 02:00:00 19,8 19,0 8 4 W 1015,3 20 -
17.06.2018 01:00:00 20,0 19,2 8 4 W 1015,3 20 -
17.06.2018 00:00:00 20,0 19,0 8 4 N 1015,3 20 -
16.06.2018 23:00:00 20,0 18,7 5 3 NNW 1015,3 20 -
16.06.2018 22:00:00 20,0 18,7 5 3 WSW 1014,7 20 -
16.06.2018 21:00:00 20,0 18,3 8 4 WSW 1014,6 20 0
16.06.2018 20:00:00 21,0 18,8 9 5 WNW 1014,4 20 60
16.06.2018 19:00:00 22,0 18,8 15 8 WNW 1014,3 20 60

tt = Température de l'air
td = dewpoint
ff = Vitesse du vent
dd = Direction du vent
ppp = reduced air pressure
vv = visibility
sd = Ensoleillement

stations d'obs. à proximité